Tracking 18624 objects as of 26-April-2017
HD Live streaming from Space Station
objects crossing your sky now

COSMOS 1546

Track COSMOS 1546 now!
COSMOS 1546 is classified as:


NORAD ID: 14867
Int'l Code: 1984-031A
Perigee: 35,685.7 km
Apogee: 35,896.3 km
Inclination: 14.2 °
Period: 1,436.0 minutes
Semi major axis: 42161 km
RCS: 0.14 m2 (medium)
Launch date: March 29, 1984
Source: Commonwealth of Independent States (former USSR) (CIS)
Launch site: TYURATAM MISSILE AND SPACE COMPLEX (TTMTR)
Your satellite tracking list
Your tracking list is empty





NASA's NSSDC Master Catalog

Two Line Element Set (TLE):
1 14867U 84031A   17114.75205885 -.00000164 +00000-0 +00000-0 0  9998
2 14867 014.1674 341.8684 0024967 289.9790 291.9713 01.00281577084428
Source of the keplerian elements: AFSPC